Regional Weather Roundup
Issued by NWS Mt. Holly, NJ

Home | Current Version | Previous Version | Text Only | Print | Product List | Glossary On
Versions: 1 2 3 4 5 6 7 8 9 10 11 12 13 14 15 16 17 18 19 20 21 22 23 24 25 26 27 28 29 30 31 32 33 34 35 36 37 38 39 40 41 42 43 44 45 46 47 48 49 50
000
ASUS41 KPHI 271511
RWRPHI

REGIONAL WEATHER ROUNDUP
NATIONAL WEATHER SERVICE MOUNT HOLLY NJ
1100 AM EDT MON APR 27 2015

NOTE:  "FAIR" INDICATES FEW OR NO CLOUDS BELOW 12,000 FEET WITH NO
SIGNIFICANT WEATHER AND/OR OBSTRUCTIONS TO VISIBILITY.

 * = STATION DOES NOT REPORT PRECIPITATION (E.G. RAIN, SNOW, ETC.)
        OR FOG.

NJZ015>026-271600-
SOUTHERN NEW JERSEY

CITY           SKY/WX    TMP DP  RH WIND       PRES   REMARKS
POMONA         PTSUNNY   58  32  37 NW16G23   29.72R
MILLVILLE      MOSUNNY   57  34  41 NW15      29.73S
WRIGHTSTOWN    CLOUDY    56  34  44 N10       29.70S
MOUNT HOLLY    CLOUDY    54  35  48 NW8       29.73S
TRENTON        CLOUDY    54  33  45 NW8       29.72R

$$
NJZ001>014-271600-
NORTHERN NEW JERSEY

CITY           SKY/WX    TMP DP  RH WIND       PRES   REMARKS
SUSSEX         CLOUDY    53  33  46 NW13      29.71S
ANDOVER*         N/A     53  34  48 NE7       29.70F
MORRISTOWN     MOSUNNY   55  34  44 N8G17     29.70S
NEWARK         PTSUNNY   59  32  36 NW14G22   29.68S
TETERBORO      MOSUNNY   58  33  39 N9G18     29.66F
CALDWELL       MOSUNNY   56  31  38 NW13G20   29.69S
SOMERVILLE     CLOUDY    55  33  43 NW12      29.69S
ALLAIRE*       CLOUDY    55  32  41 NW12G17   29.70S
TOMS RIVER*    CLOUDY    55  32  41 NW10G21   29.71R

$$
PAZ043-044-047-054-055-060>062-066>071-271600-
EASTERN PENNSYLVANIA

CITY           SKY/WX    TMP DP  RH WIND       PRES   REMARKS
PHILADELPHIA   PTSUNNY   57  34  41 NW10G20   29.74S
NORTH PHILA    CLOUDY    56  33  42 NW12      29.75S
BLUE BELL      MOSUNNY   54  36  50 NW6       29.73S
DOYLESTOWN     CLOUDY    52  34  50 NW9       29.73R
QUAKERTOWN*    CLOUDY    50  36  57 NW7       29.75R
POTTSTOWN      CLOUDY    54  35  48 NW8G18    29.75S
LANCASTER      PTSUNNY   56  35  45 NW16G23   29.75S
COATESVILLE    MOSUNNY   54  36  50 NW12      29.75S
READING        PTSUNNY   54  34  46 NW8       29.75R
ALLENTOWN      CLOUDY    52  36  54 NW9       29.75R
MOUNT POCONO   CLOUDY    46  32  58 N17G23    29.71R
HAZLETON       CLOUDY    45  34  65 W6        29.76S
WILKES BARRE   CLOUDY    48  34  58 NW10      29.75R

$$
DEZALL-MDZ008-012-015-019-020-271600-
DELAWARE AND EASTERN MARYLAND

CITY           SKY/WX    TMP DP  RH WIND       PRES   REMARKS
WILMINGTON     SUNNY     57  34  41 NW13      29.76R
DOVER          CLOUDY    56  38  50 NW14G20   29.71F
GEORGETOWN     SUNNY     58  34  40 N8        29.76S
EASTON         MOSUNNY   57  37  47 NW10G18   29.81S
ABERDEEN       PTSUNNY   57  36  44 N12       29.79F
PATUXENT       MOSUNNY   57  34  41 NW9       29.78S
OCEAN CITY     CLOUDY    57  33  40 NW12      29.75F
WALLOPS ISLAND MOSUNNY   57  36  45 N5        29.77S
CAMBRIDGE      SUNNY     59  34  38 NW8G16    29.77S
SALISBURY      SUNNY     58  33  39 N10       29.76S

$$
PAZ001-021-NYZ056-072-MDZ011-DCZ001-271600-
OTHER NEARBY LOCATIONS

CITY           SKY/WX    TMP DP  RH WIND       PRES   REMARKS
HARRISBURG     MOSUNNY   55  34  45 NW12      29.77R
STATE COLLEGE  CLOUDY    48  32  53 NW10      29.79R
WILLIAMSPORT   CLOUDY    52  33  48 VRB5      29.77S
BINGHAMTON     CLOUDY    43  34  70 N15       29.74R
NEW YORK CITY  SUNNY     57  30  35 NW9       29.70S
BALTIMORE      PTSUNNY   54  33  45 W9        29.78S
WASHINGTON DC  PTSUNNY   59  36  42 N9        29.80S

$$



USA.gov is the U.S. government's official web portal to all federal, state and local government web resources and services.